Location: Newark
(44.6768°N, 22.5302°E)
Time: 15:12:06
(UTC+00:00)

CAS-6 - Pass Details

Date: 27 June 2022
Orbit: 613 x 634 km, 97.9° (Epoch: 19 August)

Event Time Altitude Azimuth Distance (km) Brightness Sun altitude
Exits shadow 20:24:25 28° 138° (SE) 1,174 ? -16.0°
Maximum altitude 20:26:29 56° 73° (ENE) 754 ? -16.1°
Drops below altitude 10° 20:30:45 10° 355° (N) 2,008 ? -16.5°
Sets 20:32:58 0° 352° (N) 2,916 ? -16.7°
